Location: Arbon
(43.0005°N, 0.7472°E)
Time: 15:56:52
(UTC+00:00)

NPP - Pass Details

Date: 07 August 2020
Orbit: 826 x 827 km, 98.7° (Epoch: 23 September)

Event Time Altitude Azimuth Distance (km) Brightness Sun altitude
Rises 02:09:41 0° 10° (N) 3,377 7.9 -23.9°
Reaches altitude 10° 02:12:04 10° 6° (N) 2,439 6.9 -23.7°
Maximum altitude 02:17:22 58° 289° (WNW) 958 3.8 -23.1°
Enters shadow 02:18:20 50° 247° (WSW) 1,044 3.8 -23.0°
